Terminal Aerodrome Forecast
Issued by NWS

Home | Current Version | Previous Version | Graphics & Text | Print | Product List | Glossary On
Versions: 1 2 3 4 5 6 7 8 9 10 11 12 13 14 15 16 17 18 19
000
FTUS41 KCLE 260500
TAFFDY
TAF
KFDY 260531Z 2606/2706 05008KT P6SM OVC070
     FM261000 03008KT 3SM -SN OVC025
     FM261200 03010KT 1 1/2SM -SN BR OVC010
     FM261800 01010KT 5SM -SN BR OVC015
     FM262300 36008KT P6SM OVC020=

USA.gov is the U.S. government's official web portal to all federal, state and local government web resources and services.